Location: Adrasan Burnu
(36.3382°N, 30.5271°E)
Time: 23:17:33
(UTC+00:00)

Daily predictions for brighter satellites

Satellite Brightness Start Highest point End
(mag) Time Altitude Azimuth Time Altitude Azimuth Time Altitude Azimuth
Cosmos 2322 Rocket 2.8 15:48:25 10° S 15:53:33 36° ESE 15:58:42 10° NE
Nadezhda 4 Rocket 4.3 15:48:03 10° SSE 15:54:04 48° E 16:00:03 10° NNE
OAO 3 Copernicus 4.4 15:49:10 10° W 15:54:11 76° S 15:59:13 10° E
Cosmos 540 Rocket 4.3 15:50:41 10° NNW 15:55:42 58° WSW 16:00:40 10° S
Cosmos 1242 Rocket 4.5 15:52:33 10° SW 15:55:49 34° WNW 15:59:04 10° N
Okean O Rocket 3.2 15:54:50 10° E 15:57:20 15° ENE 15:59:51 10° NNE
SKYMED 2 3.5 15:53:19 10° NNE 15:57:40 70° ESE 16:01:58 10° S
Cosmos 1980 Rocket 4.0 15:52:41 10° SW 15:57:44 33° WNW 16:02:48 10° N
Meteor 2-14 Rocket 4.4 15:52:32 10° S 15:58:32 70° E 16:04:33 10° NNE
Spot 1 4.3 15:57:32 10° NNE 16:01:24 40° E 16:05:13 10° S
CZ-4B R/B 4.0 15:59:02 10° SE 16:03:41 30° ENE 16:08:23 10° N
Cosmos 968 Rocket 3.5 15:58:38 10° S 16:03:50 69° ESE 16:09:03 10° NNE
Meteor 1-12 Rocket 4.5 15:58:07 10° S 16:03:57 58° E 16:09:51 10° NNE
Cosmos 1378 Rocket 3.6 16:00:37 10° N 16:04:55 58° E 16:09:09 10° SSE
CZ-4 R/B 3.1 16:03:36 10° ESE 16:06:05 16° ENE 16:08:33 10° NNE
SKYMED 3 4.4 16:04:06 10° NNE 16:08:13 76° ESE 16:12:20 10° S
IRIDIUM 103 4.4 16:05:00 10° SSE 16:10:04 55° E 16:15:09 10° NNE
Cosmos 1470 3.4 16:11:11 10° SSE 16:14:36 32° E 16:18:02 10° NNE
PSLV R/B 3.8 16:11:36 10° SSE 16:15:08 47° ENE 16:18:39 10° N
Meteor 1-15 Rocket 4.2 16:10:04 10° S 16:15:31 60° E 16:20:59 10° NNE
NOSS 3-3 (A) 4.1 16:11:52 10° S 16:16:50 40° ESE 16:22:21 10° NE
NOSS 3-3 (C) 4.1 16:11:59 10° S 16:16:57 40° ESE 16:22:26 10° NE
ARGOS Delta rocket 3.9 16:12:14 10° NNE 16:17:15 59° E 16:21:56 10° S
Cosmos 2285 Rocket 4.1 16:12:09 10° N 16:18:26 57° ENE 16:24:41 10° SSE
Cosmos 1844 Rocket 4.0 16:15:04 10° N 16:19:20 21° ENE 16:22:33 14° E
Meteor 2-5 Rocket 4.3 16:14:25 10° N 16:19:25 34° ENE 16:24:24 10° SE
COBE Rocket 4.1 16:17:28 10° SSE 16:22:05 46° ENE 16:26:36 10° N
MOS 1-B 4.5 16:18:04 10° SSE 16:23:41 54° ENE 16:29:19 10° N
Meteor 2-21 Rocket 4.4 16:19:11 10° S 16:25:12 80° E 16:31:16 10° N
SL-16 R/B 2.3 16:20:11 10° SSW 16:25:50 80° WNW 16:31:32 10° NNE
Cosmos 2084 Rocket 4.4 16:23:27 10° N 16:26:43 25° NE 16:28:33 18° E
HJ-1C 4.1 16:24:43 12° SE 16:27:07 27° ENE 16:29:47 10° NNE
H-2A R/B 4.3 16:25:01 10° WSW 16:27:23 12° SW 16:29:00 10° SSW
IRIDIUM 106 4.3 16:23:07 10° S 16:28:19 84° E 16:33:34 10° N
OAO 2 Rocket 3.4 16:23:32 10° W 16:28:26 68° S 16:32:09 17° ESE
Timation 2 Rocket 4.5 16:26:28 10° NNW 16:32:41 63° WSW 16:38:37 10° S
USA 215 4.3 16:27:37 10° NNE 16:33:41 43° NW 16:39:44 10° WSW
Meteor 2-16 Rocket 4.4 16:30:46 10° S 16:36:54 83° E 16:43:04 10° N
Cosmos 1092 Rocket 4.0 16:32:36 10° S 16:38:47 61° E 16:44:57 10° NNE
Cosmos 2263 Rocket 3.2 16:34:30 10° NNW 16:40:00 50° WSW 16:45:27 10° S
Cosmos 2219 Rocket 3.1 16:37:12 10° SSE 16:41:41 24° ESE 16:43:52 19° ENE
PAYLOAD B 4.3 16:36:48 10° SSE 16:42:19 82° WSW 16:47:50 10° NNW
Tiangong -1.5 16:39:25 10° SW 16:42:21 37° SSE 16:43:02 33° ESE
Cosmos 1758 4.1 16:39:37 10° SSE 16:43:03 29° E 16:46:31 10° NNE
Lacrosse 4 Rocket 2.1 16:39:56 10° SW 16:43:54 54° WNW 16:47:59 10° NNE
Cosmos 1503 Rocket 4.5 16:43:53 10° SSE 16:48:33 36° E 16:53:14 10° NE
COSMOS 2455 3.2 16:44:30 10° S 16:50:05 42° ESE 16:55:41 10° NE
Cosmos 1437 Rocket 4.2 16:51:26 10° SSW 16:54:55 38° WNW 16:58:26 10° N
SJ 16-02 1.7 16:51:49 10° SSE 16:55:50 37° E 16:56:36 35° ENE
Cosmos 1300 Rocket 3.5 16:55:24 10° S 16:59:37 56° E 17:03:53 10° NNE
Cosmos 2292 Rocket 4.4 16:55:36 10° SSW 17:00:45 54° W 17:04:41 10° N
BREEZE-M DEB (TANK) 2.7 16:58:29 10° NW 17:00:58 62° NE 17:02:06 41° E
Meteor 1-24 Rocket 3.5 16:57:23 10° N 17:02:44 74° E 17:08:13 10° SSE
Cosmos 1844 4.1 16:58:19 10° N 17:03:32 40° ENE 17:04:44 35° E
ISS -0.8 17:03:02 10° W 17:04:37 13° SW 17:06:12 10° SSW
USA 267 3.4 17:02:04 29° ESE 17:05:22 56° NE 17:11:44 10° NW
Cosmos 2360 Rocket 2.2 17:00:34 10° SSW 17:06:12 81° WNW 17:11:52 10° NNE
Cosmos 2333 Rocket 2.2 17:02:34 10° S 17:08:14 62° ESE 17:13:55 10° NNE
Cosmos 1025 Rocket 2.9 17:06:53 10° N 17:11:12 67° E 17:12:24 44° SSE
Helios 1B 4.4 17:06:59 10° NNE 17:11:19 82° ESE 17:15:38 10° S
BREEZE-M TANK 3.3 17:01:51 10° SW 17:12:08 59° SSE 17:13:19 44° E
Cosmos 1782 Rocket 4.3 17:08:39 10° SSW 17:12:53 52° W 17:17:09 10° N
Okean-O 4.2 17:15:45 21° NNE 17:15:45 21° NNE 17:17:37 10° N
SL-4 R/B 3.0 17:10:18 10° WNW 17:14:40 49° SW 17:16:44 29° SSE
YAOGAN 1 3.3 17:12:01 10° S 17:16:14 53° W 17:20:27 10° NNW
USA 290 4.5 17:15:19 10° SW 17:18:06 26° WNW 17:20:56 10° N
CSL-04 Rocket 3.9 17:22:17 46° ENE 17:22:17 46° ENE 17:27:12 10° N
Feng Yun 1-1 Rocket 4.1 17:17:02 10° SSE 17:22:31 86° WSW 17:27:57 10° NNW
Okean O Rocket 2.7 17:29:08 10° S 17:33:16 43° W 17:37:27 10° NNW
Cosmos 1354 Rocket 3.8 17:32:19 10° SSW 17:37:32 87° ESE 17:39:05 47° NNE
Cosmos 2322 Rocket 4.1 17:32:43 10° WSW 17:37:35 29° WNW 17:42:30 10° N
OAO 3 Copernicus 4.4 17:33:38 10° W 17:38:29 64° SSW 17:38:29 64° SSW
CZ-4 R/B 2.8 17:37:45 16° SSW 17:40:38 38° W 17:44:33 10° NNW
Landsat 5 4.0 17:39:47 10° N 17:44:11 61° WNW 17:48:27 10° SSW
Cosmos 1975 Rocket 4.2 17:43:45 10° NNW 17:47:51 40° W 17:49:19 30° SW
Cosmos 1553 Rocket 3.9 17:46:32 10° N 17:52:57 88° W 17:54:11 62° S
Cosmos 1844 Rocket 3.4 17:58:00 10° NNW 18:03:29 51° WSW 18:04:16 47° SW
Cosmos 2219 Rocket 3.3 18:20:01 10° SW 18:25:19 41° WNW 18:25:51 40° NW
SJ 16-02 4.1 18:31:43 10° WSW 18:33:46 16° WNW 18:33:46 16° WNW
USA 267 4.4 18:49:27 35° WSW 18:49:27 35° WSW 18:54:26 10° WNW
